Time,TemperatureF,DewpointF,PressureIn,WindDirection,WindDirectionDegrees,WindSpeedMPH,WindSpeedGustMPH,Humidity,HourlyPrecipIn,Conditions,Clouds,dailyrainin,SoftwareType,DateUTC
2011-08-24 00:05:00,74.8,46.7,30.02,SE,135,0.0,1.6,37,0.00,,,0.04,open2300-1.11,2011-08-24 06:05:00,
2011-08-24 00:15:00,74.8,46.7,30.02,ENE,67,0.0,0.0,37,0.00,,,0.04,open2300-1.11,2011-08-24 06:15:00,
2011-08-24 00:25:00,75.0,46.1,30.02,SSE,157,4.7,4.7,36,0.00,,,0.04,open2300-1.11,2011-08-24 06:25:00,
2011-08-24 00:35:00,75.0,46.1,30.02,SE,135,0.0,6.0,36,0.00,,,0.04,open2300-1.11,2011-08-24 06:35:00,
2011-08-24 00:45:00,74.8,45.9,30.02,East,90,0.4,0.9,36,0.00,,,0.04,open2300-1.11,2011-08-24 06:45:00,
2011-08-24 00:55:00,74.5,45.6,30.02,SE,135,0.0,3.6,36,0.00,,,0.04,open2300-1.11,2011-08-24 06:55:00,
2011-08-24 01:05:00,74.3,46.2,30.02,East,90,0.9,0.9,37,0.00,,,0.04,open2300-1.11,2011-08-24 07:05:00,
2011-08-24 01:15:00,74.1,46.0,30.02,SE,135,0.0,2.5,37,0.00,,,0.04,open2300-1.11,2011-08-24 07:15:00,
2011-08-24 01:25:00,73.8,45.7,30.02,ESE,112,0.0,0.0,37,0.00,,,0.04,open2300-1.11,2011-08-24 07:25:00,
2011-08-24 01:35:00,73.6,44.8,30.02,SSE,157,0.0,0.0,36,0.00,,,0.04,open2300-1.11,2011-08-24 07:35:00,
2011-08-24 01:45:00,73.2,45.2,30.02,SE,135,0.0,1.3,37,0.00,,,0.04,open2300-1.11,2011-08-24 07:45:00,
2011-08-24 01:55:00,72.9,44.2,30.02,SE,135,2.0,3.6,36,0.00,,,0.04,open2300-1.11,2011-08-24 07:55:00,
2011-08-24 02:05:00,72.5,44.6,30.01,East,90,0.0,2.0,37,0.00,,,0.04,open2300-1.11,2011-08-24 08:05:00,
2011-08-24 02:15:00,72.1,45.0,30.02,ENE,67,1.1,2.7,38,0.00,,,0.04,open2300-1.11,2011-08-24 08:15:00,
2011-08-24 02:25:00,72.0,44.1,30.02,SE,135,0.0,1.1,37,0.00,,,0.04,open2300-1.11,2011-08-24 08:25:00,
2011-08-24 02:35:00,71.8,44.0,30.02,ESE,112,0.0,2.9,37,0.00,,,0.04,open2300-1.11,2011-08-24 08:35:00,
2011-08-24 02:45:00,71.8,43.2,30.02,ESE,112,0.0,3.1,36,0.00,,,0.04,open2300-1.11,2011-08-24 08:45:00,
2011-08-24 02:55:00,71.8,44.7,30.02,ENE,67,2.5,4.2,38,0.00,,,0.04,open2300-1.11,2011-08-24 08:55:00,
2011-08-24 03:05:00,71.2,44.2,30.01,East,90,0.0,2.5,38,0.00,,,0.04,open2300-1.11,2011-08-24 09:05:00,
2011-08-24 03:15:00,70.9,44.7,30.01,East,90,1.6,1.6,39,0.00,,,0.04,open2300-1.11,2011-08-24 09:15:00,
2011-08-24 03:25:00,70.7,44.5,30.01,ENE,67,4.9,4.9,39,0.00,,,0.04,open2300-1.11,2011-08-24 09:25:00,
2011-08-24 03:35:00,70.3,45.5,30.01,East,90,4.5,6.0,41,0.00,,,0.04,open2300-1.11,2011-08-24 09:35:00,
2011-08-24 03:45:00,70.0,44.6,30.01,East,90,0.0,4.5,40,0.00,,,0.04,open2300-1.11,2011-08-24 09:45:00,
2011-08-24 03:55:00,69.8,45.0,30.01,ENE,67,2.0,2.0,41,0.00,,,0.04,open2300-1.11,2011-08-24 09:55:00,
2011-08-24 04:05:00,69.8,44.4,30.02,ENE,67,2.5,5.6,40,0.00,,,0.04,open2300-1.11,2011-08-24 10:05:00,
2011-08-24 04:15:00,69.6,44.3,30.02,ESE,112,0.0,3.6,40,0.00,,,0.04,open2300-1.11,2011-08-24 10:15:00,
2011-08-24 04:25:00,69.6,44.3,30.02,NE,45,3.6,5.1,40,0.00,,,0.04,open2300-1.11,2011-08-24 10:25:00,
2011-08-24 04:35:00,69.1,43.8,30.02,ENE,67,0.0,3.6,40,0.00,,,0.04,open2300-1.11,2011-08-24 10:35:00,
2011-08-24 04:45:00,68.9,44.2,30.02,East,90,0.0,4.0,41,0.00,,,0.04,open2300-1.11,2011-08-24 10:45:00,
2011-08-24 04:55:00,68.7,43.5,30.03,ESE,112,0.0,1.8,40,0.00,,,0.04,open2300-1.11,2011-08-24 10:55:00,
2011-08-24 05:05:00,68.2,44.2,30.03,ENE,67,1.3,5.8,42,0.00,,,0.04,open2300-1.11,2011-08-24 11:05:00,
2011-08-24 05:15:00,68.2,43.6,30.03,East,90,0.0,1.3,41,0.00,,,0.04,open2300-1.11,2011-08-24 11:15:00,
2011-08-24 05:25:00,68.2,44.2,30.03,East,90,0.0,0.7,42,0.00,,,0.04,open2300-1.11,2011-08-24 11:25:00,
2011-08-24 05:35:00,67.8,43.8,30.04,East,90,0.0,0.0,42,0.00,,,0.04,open2300-1.11,2011-08-24 11:35:00,
2011-08-24 05:45:00,67.3,43.3,30.04,SE,135,0.0,0.0,42,0.00,,,0.04,open2300-1.11,2011-08-24 11:45:00,
2011-08-24 05:55:00,66.6,42.7,30.04,SE,135,0.0,0.0,42,0.00,,,0.04,open2300-1.11,2011-08-24 11:55:00,
2011-08-24 06:05:00,66.0,42.8,30.04,ENE,67,0.0,0.0,43,0.00,,,0.04,open2300-1.11,2011-08-24 12:05:00,
2011-08-24 06:15:00,65.7,42.5,30.04,ENE,67,0.0,0.0,43,0.00,,,0.04,open2300-1.11,2011-08-24 12:15:00,
2011-08-24 06:25:00,65.1,42.5,30.05,ENE,67,0.0,0.0,44,0.00,,,0.04,open2300-1.11,2011-08-24 12:25:00,
2011-08-24 06:35:00,64.9,42.9,30.05,East,90,0.0,2.9,45,0.00,,,0.04,open2300-1.11,2011-08-24 12:35:00,
2011-08-24 06:45:00,64.9,42.9,30.05,East,90,0.0,2.9,45,0.00,,,0.04,open2300-1.11,2011-08-24 12:45:00,
2011-08-24 06:55:00,64.9,42.9,30.06,ESE,112,0.0,0.0,45,0.00,,,0.04,open2300-1.11,2011-08-24 12:55:00,
2011-08-24 07:05:00,64.9,42.9,30.06,East,90,0.0,0.0,45,0.00,,,0.04,open2300-1.11,2011-08-24 13:05:00,
2011-08-24 07:15:00,64.9,42.9,30.07,ENE,67,0.0,0.0,45,0.00,,,0.04,open2300-1.11,2011-08-24 13:15:00,
2011-08-24 07:25:00,65.1,43.1,30.07,SSE,157,0.0,0.0,45,0.00,,,0.04,open2300-1.11,2011-08-24 13:25:00,
2011-08-24 07:35:00,65.3,43.3,30.07,East,90,0.0,0.0,45,0.00,,,0.04,open2300-1.11,2011-08-24 13:35:00,
2011-08-24 07:45:00,65.5,43.5,30.07,ESE,112,0.0,0.0,45,0.00,,,0.04,open2300-1.11,2011-08-24 13:45:00,
2011-08-24 07:55:00,65.8,43.2,30.07,East,90,0.0,0.0,44,0.00,,,0.04,open2300-1.11,2011-08-24 13:55:00,
2011-08-24 08:05:00,66.4,43.7,30.07,East,90,0.0,0.0,44,0.00,,,0.04,open2300-1.11,2011-08-24 14:05:00,
2011-08-24 08:15:00,66.9,44.2,30.07,SSE,157,0.0,0.0,44,0.00,,,0.04,open2300-1.11,2011-08-24 14:15:00,
2011-08-24 08:25:00,67.6,44.8,30.07,East,90,0.0,0.0,44,0.00,,,0.04,open2300-1.11,2011-08-24 14:25:00,
2011-08-24 08:35:00,68.7,45.8,30.07,East,90,0.0,4.0,44,0.00,,,0.04,open2300-1.11,2011-08-24 14:35:00,
2011-08-24 08:45:00,69.8,46.2,30.07,ENE,67,0.0,0.2,43,0.00,,,0.04,open2300-1.11,2011-08-24 14:45:00,
2011-08-24 08:55:00,70.5,46.3,30.07,East,90,0.0,0.0,42,0.00,,,0.04,open2300-1.11,2011-08-24 14:55:00,
2011-08-24 09:05:00,71.4,47.1,30.07,ENE,67,0.0,0.0,42,0.00,,,0.04,open2300-1.11,2011-08-24 15:05:00,
2011-08-24 09:15:00,72.7,47.6,30.07,East,90,0.0,0.0,41,0.00,,,0.04,open2300-1.11,2011-08-24 15:15:00,
2011-08-24 09:25:00,73.6,48.4,30.07,East,90,0.0,0.0,41,0.00,,,0.04,open2300-1.11,2011-08-24 15:25:00,
2011-08-24 09:35:00,75.0,47.6,30.06,SSE,157,0.0,0.0,38,0.00,,,0.04,open2300-1.11,2011-08-24 15:35:00,
2011-08-24 09:45:00,76.3,48.0,30.06,SE,135,0.0,0.0,37,0.00,,,0.04,open2300-1.11,2011-08-24 15:45:00,
2011-08-24 09:55:00,77.2,48.0,30.06,SE,135,0.0,0.0,36,0.00,,,0.04,open2300-1.11,2011-08-24 15:55:00,
2011-08-24 10:05:00,78.4,49.1,30.06,SSE,157,0.0,0.0,36,0.00,,,0.04,open2300-1.11,2011-08-24 16:05:00,
2011-08-24 10:15:00,79.5,49.3,30.06,South,180,0.0,0.0,35,0.00,,,0.04,open2300-1.11,2011-08-24 16:15:00,
2011-08-24 10:25:00,80.2,49.3,30.06,South,180,0.0,0.0,34,0.00,,,0.04,open2300-1.11,2011-08-24 16:25:00,
2011-08-24 10:35:00,81.3,50.1,30.06,SSE,157,0.0,0.0,34,0.00,,,0.04,open2300-1.11,2011-08-24 16:35:00,
2011-08-24 10:45:00,82.0,49.9,30.06,SSW,202,0.0,0.0,33,0.00,,,0.04,open2300-1.11,2011-08-24 16:45:00,
2011-08-24 10:55:00,82.9,49.9,30.06,SSW,202,0.0,0.0,32,0.00,,,0.04,open2300-1.11,2011-08-24 16:55:00,
2011-08-24 11:05:00,83.8,49.9,30.05,NW,315,0.0,0.0,31,0.00,,,0.04,open2300-1.11,2011-08-24 17:05:00,
2011-08-24 11:15:00,84.4,49.6,30.05,SW,225,0.0,0.0,30,0.00,,,0.04,open2300-1.11,2011-08-24 17:15:00,
2011-08-24 11:25:00,84.9,50.1,30.05,WNW,292,0.0,0.0,30,0.00,,,0.04,open2300-1.11,2011-08-24 17:25:00,
2011-08-24 11:35:00,85.6,50.8,30.05,North,0,0.0,2.5,30,0.00,,,0.04,open2300-1.11,2011-08-24 17:35:00,
2011-08-24 11:45:00,86.2,50.1,30.05,SW,225,0.0,0.0,29,0.00,,,0.04,open2300-1.11,2011-08-24 17:45:00,
2011-08-24 11:55:00,86.7,50.6,30.04,WNW,292,0.0,2.0,29,0.00,,,0.04,open2300-1.11,2011-08-24 17:55:00,
2011-08-24 12:05:00,87.4,50.1,30.04,West,270,0.0,0.0,28,0.00,,,0.04,open2300-1.11,2011-08-24 18:05:00,
2011-08-24 12:15:00,88.3,49.8,30.04,SW,225,0.0,2.9,27,0.00,,,0.04,open2300-1.11,2011-08-24 18:15:00,
2011-08-24 12:25:00,89.2,50.6,30.03,NW,315,1.6,1.6,27,0.00,,,0.04,open2300-1.11,2011-08-24 18:25:00,
2011-08-24 12:35:00,89.4,50.7,30.03,WNW,292,0.0,2.0,27,0.00,,,0.04,open2300-1.11,2011-08-24 18:35:00,
2011-08-24 12:45:00,90.1,50.3,30.02,WNW,292,0.0,2.0,26,0.00,,,0.04,open2300-1.11,2011-08-24 18:45:00,
2011-08-24 12:55:00,90.9,50.9,30.01,WSW,247,0.0,2.7,26,0.00,,,0.04,open2300-1.11,2011-08-24 18:55:00,
2011-08-24 13:05:00,91.2,51.2,30.01,WNW,292,2.0,2.0,26,0.00,,,0.04,open2300-1.11,2011-08-24 19:05:00,
2011-08-24 13:15:00,91.8,50.6,30.01,NW,315,1.8,2.0,25,0.00,,,0.04,open2300-1.11,2011-08-24 19:15:00,
2011-08-24 13:25:00,92.3,51.0,30.00,NW,315,0.0,2.2,25,0.00,,,0.04,open2300-1.11,2011-08-24 19:25:00,
2011-08-24 13:35:00,93.0,50.5,30.00,WNW,292,0.0,5.1,24,0.00,,,0.04,open2300-1.11,2011-08-24 19:35:00,
2011-08-24 13:45:00,93.9,51.2,29.99,SW,225,0.2,3.4,24,0.00,,,0.04,open2300-1.11,2011-08-24 19:45:00,
2011-08-24 14:23:00,94.8,50.8,29.98,NNW,337,0.0,0.9,23,0.00,,,0.04,open2300-1.11,2011-08-24 20:23:00,
2011-08-24 14:33:00,95.4,50.2,29.98,WNW,292,0.0,0.2,22,0.00,,,0.04,open2300-1.11,2011-08-24 20:33:00,
2011-08-24 14:43:00,94.8,50.8,29.98,WSW,247,0.0,0.0,23,0.00,,,0.04,open2300-1.11,2011-08-24 20:43:00,
2011-08-24 14:53:00,93.7,48.8,29.98,West,270,0.0,1.1,22,0.00,,,0.04,open2300-1.11,2011-08-24 20:53:00,
2011-08-24 15:03:00,93.0,49.4,29.98,NW,315,0.0,0.0,23,0.00,,,0.00,open2300-1.11,2011-08-24 21:03:00,
2011-08-24 15:13:00,92.1,53.0,29.97,NNW,337,0.0,0.0,27,0.00,,,0.00,open2300-1.11,2011-08-24 21:13:00,
2011-08-24 15:23:00,91.0,50.0,29.97,West,270,0.0,0.0,25,0.00,,,0.00,open2300-1.11,2011-08-24 21:23:00,
2011-08-24 15:33:00,90.5,49.5,29.97,East,90,0.9,0.9,25,0.00,,,0.00,open2300-1.11,2011-08-24 21:33:00,
2011-08-24 15:43:00,90.7,49.7,29.97,WSW,247,0.0,0.9,25,0.00,,,0.00,open2300-1.11,2011-08-24 21:43:00,
2011-08-24 15:53:00,92.1,47.5,29.96,SW,225,0.0,0.9,22,0.00,,,0.00,open2300-1.11,2011-08-24 21:53:00,
2011-08-24 16:03:00,93.2,47.3,29.96,SW,225,0.0,3.6,21,0.00,,,0.00,open2300-1.11,2011-08-24 22:03:00,
2011-08-24 16:13:00,94.8,47.5,29.96,WNW,292,4.7,4.7,20,0.00,,,0.00,open2300-1.11,2011-08-24 22:13:00,
2011-08-24 16:23:00,95.2,47.8,29.96,WNW,292,0.0,4.7,20,0.00,,,0.00,open2300-1.11,2011-08-24 22:23:00,
2011-08-24 16:33:00,95.4,48.0,29.96,East,90,0.0,2.5,20,0.00,,,0.00,open2300-1.11,2011-08-24 22:33:00,
2011-08-24 16:43:00,95.4,48.0,29.97,NE,45,0.0,0.0,20,0.00,,,0.00,open2300-1.11,2011-08-24 22:43:00,
2011-08-24 16:53:00,94.8,47.5,29.96,South,180,0.0,0.7,20,0.00,,,0.00,open2300-1.11,2011-08-24 22:53:00,
2011-08-24 17:03:00,93.9,47.9,29.97,East,90,1.6,1.6,21,0.00,,,0.00,open2300-1.11,2011-08-24 23:03:00,
2011-08-24 17:13:00,92.3,53.2,29.99,SE,135,1.3,8.1,27,0.00,,,0.00,open2300-1.11,2011-08-24 23:13:00,
2011-08-24 17:23:00,86.5,56.3,30.00,East,90,2.0,9.8,36,0.04,,,0.04,open2300-1.11,2011-08-24 23:23:00,
2011-08-24 17:33:00,82.6,55.9,30.02,ENE,67,3.1,5.4,40,0.06,,,0.06,open2300-1.11,2011-08-24 23:33:00,
2011-08-24 17:43:00,81.0,55.7,30.02,ESE,112,3.8,3.8,42,0.06,,,0.06,open2300-1.11,2011-08-24 23:43:00,
2011-08-24 17:53:00,79.5,56.2,30.02,East,90,5.6,5.6,45,0.06,,,0.06,open2300-1.11,2011-08-24 23:53:00,
2011-08-24 18:03:00,79.5,56.8,30.02,East,90,0.0,6.0,46,0.06,,,0.06,open2300-1.11,2011-08-25 00:03:00,
2011-08-24 18:13:00,79.3,55.5,30.02,East,90,2.5,5.6,44,0.06,,,0.06,open2300-1.11,2011-08-25 00:13:00,
2011-08-24 18:23:00,79.3,54.2,30.02,ENE,67,6.3,8.7,42,0.02,,,0.06,open2300-1.11,2011-08-25 00:23:00,
2011-08-24 18:33:00,79.2,54.1,30.02,SE,135,0.0,6.3,42,0.00,,,0.06,open2300-1.11,2011-08-25 00:33:00,
2011-08-24 18:43:00,79.0,53.9,30.01,ESE,112,0.0,3.1,42,0.00,,,0.06,open2300-1.11,2011-08-25 00:43:00,
2011-08-24 18:53:00,78.6,54.2,30.01,ESE,112,2.5,5.1,43,0.00,,,0.06,open2300-1.11,2011-08-25 00:53:00,
2011-08-24 19:03:00,78.4,54.6,30.00,SE,135,0.0,4.5,44,0.00,,,0.06,open2300-1.11,2011-08-25 01:03:00,
2011-08-24 19:13:00,78.4,54.0,30.01,ENE,67,0.0,0.0,43,0.00,,,0.06,open2300-1.11,2011-08-25 01:13:00,
2011-08-24 19:23:00,78.4,54.0,30.00,ENE,67,0.0,4.2,43,0.00,,,0.06,open2300-1.11,2011-08-25 01:23:00,
2011-08-24 19:33:00,78.4,53.4,30.01,SE,135,0.0,8.3,42,0.00,,,0.06,open2300-1.11,2011-08-25 01:33:00,
2011-08-24 19:43:00,78.1,53.1,30.01,East,90,0.0,0.0,42,0.00,,,0.06,open2300-1.11,2011-08-25 01:43:00,
2011-08-24 19:53:00,77.7,53.4,30.02,ENE,67,3.4,3.4,43,0.00,,,0.06,open2300-1.11,2011-08-25 01:53:00,
2011-08-24 20:03:00,77.5,52.6,30.03,SSE,157,0.0,3.4,42,0.00,,,0.06,open2300-1.11,2011-08-25 02:03:00,
2011-08-24 20:13:00,77.0,52.7,30.03,SSE,157,0.0,0.0,43,0.00,,,0.06,open2300-1.11,2011-08-25 02:13:00,
2011-08-24 20:23:00,76.6,52.4,30.04,SSE,157,0.0,0.9,43,0.00,,,0.06,open2300-1.11,2011-08-25 02:23:00,
2011-08-24 20:33:00,76.1,52.5,30.04,SE,135,0.0,0.0,44,0.00,,,0.06,open2300-1.11,2011-08-25 02:33:00,
2011-08-24 20:43:00,75.9,51.8,30.04,East,90,1.3,1.3,43,0.00,,,0.06,open2300-1.11,2011-08-25 02:43:00,
2011-08-24 20:53:00,75.7,51.0,30.05,SE,135,0.0,1.3,42,0.00,,,0.06,open2300-1.11,2011-08-25 02:53:00,
2011-08-24 21:03:00,75.6,51.4,30.05,SSE,157,0.0,0.0,43,0.00,,,0.06,open2300-1.11,2011-08-25 03:03:00,
2011-08-24 21:13:00,75.4,51.3,30.06,ESE,112,0.0,0.0,43,0.00,,,0.06,open2300-1.11,2011-08-25 03:13:00,
2011-08-24 21:23:00,75.0,51.5,30.06,ESE,112,0.0,0.0,44,0.00,,,0.06,open2300-1.11,2011-08-25 03:23:00,
2011-08-24 21:33:00,74.5,51.0,30.06,SSE,157,0.0,4.2,44,0.00,,,0.06,open2300-1.11,2011-08-25 03:33:00,
2011-08-24 21:43:00,74.5,51.0,30.06,SE,135,0.0,0.0,44,0.00,,,0.06,open2300-1.11,2011-08-25 03:43:00,
2011-08-24 21:53:00,74.5,50.4,30.07,South,180,0.0,0.0,43,0.00,,,0.06,open2300-1.11,2011-08-25 03:53:00,
2011-08-24 22:03:00,74.5,51.7,30.07,NNE,22,1.3,5.1,45,0.00,,,0.06,open2300-1.11,2011-08-25 04:03:00,
2011-08-24 22:13:00,74.5,51.7,30.09,ENE,67,3.1,3.8,45,0.00,,,0.06,open2300-1.11,2011-08-25 04:13:00,
2011-08-24 22:23:00,74.3,52.1,30.08,North,0,0.0,3.1,46,0.00,,,0.06,open2300-1.11,2011-08-25 04:23:00,
2011-08-24 22:33:00,74.5,51.0,30.09,East,90,2.9,8.5,44,0.00,,,0.06,open2300-1.11,2011-08-25 04:33:00,
2011-08-24 22:43:00,74.8,50.8,30.09,SW,225,3.4,3.4,43,0.00,,,0.06,open2300-1.11,2011-08-25 04:43:00,
2011-08-24 22:53:00,75.4,50.7,30.09,ENE,67,3.8,3.8,42,0.00,,,0.06,open2300-1.11,2011-08-25 04:53:00,
2011-08-24 23:03:00,75.4,50.7,30.09,ENE,67,7.4,10.1,42,0.00,,,0.06,open2300-1.11,2011-08-25 05:03:00,
2011-08-24 23:13:00,75.4,51.3,30.09,ENE,67,8.3,8.3,43,0.00,,,0.06,open2300-1.11,2011-08-25 05:13:00,
2011-08-24 23:23:00,75.0,50.9,30.08,East,90,7.2,8.7,43,0.00,,,0.06,open2300-1.11,2011-08-25 05:23:00,
2011-08-24 23:33:00,74.8,50.8,30.08,ESE,112,5.1,7.6,43,0.00,,,0.06,open2300-1.11,2011-08-25 05:33:00,
2011-08-24 23:43:00,74.8,51.4,30.08,East,90,0.0,8.7,44,0.00,,,0.06,open2300-1.11,2011-08-25 05:43:00,
2011-08-24 23:53:00,74.8,51.4,30.09,NE,45,8.3,11.2,44,0.00,,,0.06,open2300-1.11,2011-08-25 05:53:00,